User: anonymous   Login
Location: Unspecified
(0.0000°N, 0.0000°E)
Time: 21:37:11
(UTC+00:00)
Language:

XW-2E - Orbit

View from above orbital plane
View from above orbital plane
View from above satellite
View from above satellite

Ground track
Ground track

The orbit data is extracted from the following two-line orbital elements,

1 40909U 15049L   22268.58750074  .00009723  00000-0  39028-3 0  9993
2 40909  97.4666 276.1212 0011133 354.4115 133.1379 15.25126778388667
Epoch (UTC): 25 September 2022 14:06:00
Eccentricity: 0.0011133
inclination: 97.4666°
perigee height: 483 km
apogee height: 498 km
right ascension of ascending node: 276.1212°
argument of perigee: 354.4115°
revolutions per day: 15.25126778
mean anomaly at epoch: 133.1379°
orbit number at epoch: 38866

The dashed part of the orbit path shows where the satellite is in the earth's shadow,  

DLR